TimeCST,TemperatureF,Dew PointF,Humidity,Sea Level PressureIn,VisibilityMPH,Wind Direction,Wind SpeedMPH,Gust SpeedMPH,PrecipitationIn,Events,Conditions,WindDirDegrees,DateUTC
12:54 AM,57.9,55.9,93,29.97,9.0,East,5.8,-,0.00,,Overcast,80,2013-02-07 06:54:00
1:54 AM,57.0,55.9,96,29.96,7.0,Calm,Calm,-,N/A,,Clear,0,2013-02-07 07:54:00
2:07 AM,57.2,55.4,94,29.97,7.0,Calm,Calm,-,N/A,,Scattered Clouds,0,2013-02-07 08:07:00
2:18 AM,57.2,55.4,94,29.96,6.0,Calm,Calm,-,N/A,,Mostly Cloudy,0,2013-02-07 08:18:00
2:54 AM,57.0,55.9,96,29.94,6.0,Calm,Calm,-,N/A,,Mostly Cloudy,0,2013-02-07 08:54:00
3:50 AM,57.2,55.4,94,29.94,5.0,NNE,3.5,-,N/A,,Overcast,30,2013-02-07 09:50:00
3:54 AM,57.9,55.9,93,29.94,5.0,NNE,3.5,-,N/A,,Overcast,30,2013-02-07 09:54:00
4:42 AM,57.2,55.4,94,29.93,5.0,East,3.5,-,N/A,,Scattered Clouds,80,2013-02-07 10:42:00
4:54 AM,57.0,55.9,96,29.92,5.0,ENE,4.6,-,N/A,,Partly Cloudy,60,2013-02-07 10:54:00
5:11 AM,57.2,55.4,94,29.92,4.0,NNE,5.8,-,N/A,,Scattered Clouds,30,2013-02-07 11:11:00
5:32 AM,57.2,55.4,94,29.91,5.0,NE,5.8,-,N/A,,Mostly Cloudy,40,2013-02-07 11:32:00
5:54 AM,57.9,55.9,93,29.91,5.0,NE,5.8,-,N/A,,Overcast,40,2013-02-07 11:54:00
6:54 AM,57.9,55.9,93,29.92,5.0,NNE,4.6,-,N/A,,Mostly Cloudy,30,2013-02-07 12:54:00
7:26 AM,57.2,55.4,94,29.92,4.0,NNE,3.5,-,N/A,,Overcast,30,2013-02-07 13:26:00
7:34 AM,57.2,55.4,94,29.93,4.0,NNE,4.6,-,N/A,,Overcast,30,2013-02-07 13:34:00
7:54 AM,57.9,55.9,93,29.93,4.0,NNE,5.8,-,N/A,,Overcast,30,2013-02-07 13:54:00
8:02 AM,57.2,55.4,94,29.93,5.0,NE,4.6,-,N/A,,Overcast,40,2013-02-07 14:02:00
8:13 AM,59.0,55.4,88,29.92,5.0,NE,6.9,-,N/A,,Overcast,40,2013-02-07 14:13:00
8:32 AM,59.0,55.4,88,29.92,6.0,NNE,6.9,-,N/A,,Overcast,30,2013-02-07 14:32:00
8:54 AM,59.0,55.9,90,29.92,6.0,NNE,5.8,-,N/A,,Overcast,20,2013-02-07 14:54:00
9:54 AM,59.0,57.0,93,29.94,5.0,North,4.6,-,N/A,,Overcast,350,2013-02-07 15:54:00
10:54 AM,60.1,57.0,90,29.95,7.0,North,5.8,-,N/A,,Overcast,360,2013-02-07 16:54:00
11:54 AM,61.0,57.0,87,29.95,8.0,North,6.9,-,N/A,,Overcast,360,2013-02-07 17:54:00
12:10 PM,60.8,55.4,82,29.94,8.0,North,3.5,-,N/A,,Overcast,360,2013-02-07 18:10:00
12:51 PM,62.6,55.4,77,29.93,9.0,NNE,3.5,-,N/A,,Overcast,30,2013-02-07 18:51:00
12:54 PM,62.1,55.9,80,29.92,10.0,North,3.5,-,N/A,,Overcast,360,2013-02-07 18:54:00
1:05 PM,62.6,55.4,77,29.93,10.0,Calm,Calm,-,N/A,,Overcast,0,2013-02-07 19:05:00
1:54 PM,64.9,55.9,73,29.90,10.0,Variable,3.5,-,N/A,,Mostly Cloudy,0,2013-02-07 19:54:00
2:54 PM,64.9,55.9,73,29.89,10.0,North,3.5,-,N/A,,Mostly Cloudy,10,2013-02-07 20:54:00
3:27 PM,68.0,55.4,64,29.90,10.0,NNE,5.8,-,N/A,,Scattered Clouds,30,2013-02-07 21:27:00
3:54 PM,66.0,55.9,70,29.90,10.0,NE,4.6,-,N/A,,Scattered Clouds,50,2013-02-07 21:54:00
4:54 PM,66.0,55.0,68,29.89,10.0,ENE,5.8,-,N/A,,Partly Cloudy,60,2013-02-07 22:54:00
5:54 PM,57.9,54.0,87,29.90,10.0,Calm,Calm,-,N/A,,Partly Cloudy,0,2013-02-07 23:54:00
6:54 PM,55.0,53.1,93,29.91,10.0,SE,3.5,-,N/A,,Partly Cloudy,130,2013-02-08 00:54:00
7:54 PM,54.0,52.0,93,29.92,10.0,SSE,3.5,-,N/A,,Partly Cloudy,150,2013-02-08 01:54:00
8:54 PM,52.0,51.1,97,29.92,5.0,Calm,Calm,-,N/A,,Partly Cloudy,0,2013-02-08 02:54:00
9:54 PM,53.1,51.1,93,29.93,4.0,Calm,Calm,-,N/A,,Partly Cloudy,0,2013-02-08 03:54:00
10:54 PM,52.0,51.1,97,29.94,5.0,Calm,Calm,-,N/A,,Clear,0,2013-02-08 04:54:00
11:54 PM,55.9,54.0,93,29.94,8.0,SSE,3.5,-,N/A,,Overcast,150,2013-02-08 05:54:00